Regional Weather Roundup
Issued by NWS

Home | Current Version | Previous Version | Graphics & Text | Print | Product List | Glossary On
Versions: 1 2 3 4 5 6 7 8 9 10 11 12 13 14 15 16 17 18 19 20 21 22 23 24 25 26 27 28 29 30 31 32 33 34 35 36 37 38 39 40 41 42 43 44 45 46 47 48 49 50
000
ASUS43 KDMX 260801
RWRIA

WEATHER ROUNDUP FOR IOWA
NATIONAL WEATHER SERVICE DES MOINES IA
300 AM CDT SUN MAR 26 2017

NOTE: "FAIR" INDICATES FEW OR NO CLOUDS BELOW 12,000 FEET WITH NO
SIGNIFICANT WEATHER AND/OR OBSTRUCTIONS TO VISIBILITY.

* - THESE STATIONS ARE NOT NWS STATIONS...THUS NOT UNDER NWS
QUALITY CONTROL.  THEY ALSO DO NOT REPORT WEATHER SUCH
AS PRECIPITATION OR FOG.

IAZ001>003-012>014-020>022-031>034-043>046-260900-
   NORTHWEST IOWA

CITY           SKY/WX    TMP DP  RH WIND       PRES   REMARKS
CARROLL *      CLOUDY    39  39 100 N9        29.88S FOG     WCI  33
CHEROKEE *     CLOUDY    37  37 100 N6        29.91S FOG     WCI  32
LE MARS *      CLOUDY    37  37 100 NE6       29.92F FOG     WCI  33
ORANGE CITY *  CLOUDY    37  37 100 NE3       29.91F FOG
SHELDON *      FOG       36  36 100 NE6       29.91S VSB 3/4 WCI  31
SIOUX CITY     CLOUDY    38  38 100 N6        29.92F FOG     WCI  33
SPENCER        CLOUDY    37  36  96 NE7       29.91F WCI  32
STORM LAKE *   FOG       37  37 100 NE10      29.89F VSB 1/4 WCI  30
$$

IAZ055>058-069>071-079>083-090>094-260900-
   SOUTHWEST IOWA

CITY           SKY/WX    TMP DP  RH WIND       PRES   REMARKS
ATLANTIC *     CLOUDY    39  39 100 N7        29.88S FOG     WCI  34
AUDUBON *      CLOUDY    37  37 100 N7        29.88S FOG     WCI  32
CLARINDA *     CLOUDY    41  41 100 N5        29.90S
COUNCIL BLFS * CLOUDY    39  39 100 NW7       29.89R WCI  34
CRESTON *      FOG       39  39 100 N10       29.86R VSB 1/4 WCI  32
HARLAN  *      CLOUDY    39  39 100 N8        29.91S WCI  34
LAMONI         FOG       42  42 100 N9        29.82F VSB 1
RED OAK *      CLOUDY    41  41 100 N3        29.89R
SHENANDOAH *   CLOUDY    41  41 100 NW3       29.89S
$$

IAZ047>049-059>061-072>074-084-260900-
   CENTRAL IOWA

CITY           SKY/WX    TMP DP  RH WIND       PRES   REMARKS
AMES           CLOUDY    40  40 100 N7        29.86F FOG
ANKENY *       CLOUDY    41  39  93 N7        29.87S FOG
BOONE *        FOG       39  39 100 N10       29.86S VSB 1/2 WCI  32
CHARITON *     CLOUDY    43  41  93 N10       29.82F FOG
DES MOINES     RAIN      42  41  96 N6        29.85S VSB 1
GRINNELL*      LGT RAIN  40  40  99 N9        29.84F VSB 3/4 WCI  35
MARSHALLTOWN   LGT RAIN  40  40 100 NE9       29.85F FOG     WCI  34
NEWTON *       CLOUDY    41  41 100 NE13      29.83F FOG
PELLA *        DRIZZLE   42  41  98 N7        29.84F
PERRY *        CLOUDY    40  39  98 N8        29.87S FOG     WCI  34
$$

IAZ004>006-015-016-023>025-035-036-260900-
   NORTH CENTRAL IOWA

CITY           SKY/WX    TMP DP  RH WIND       PRES   REMARKS
ALGONA *       CLOUDY    37  37 100 N7        29.90S FOG     WCI  32
CLARION *      CLOUDY    37  37 100 NE10      29.89S FOG     WCI  30
ESTHERVILLE    CLOUDY    36  36 100 NE8       29.91F WCI  30
FORT DODGE *   CLOUDY    37  36  93 NE8       29.89F WCI  31
MASON CITY     FOG       37  36  96 NE7       29.92S VSB 1/2 WCI  32
FOREST CITY *  CLOUDY    36  36 100 NE7       29.90F FOG     WCI  30
WEBSTER CITY * FOG       37  37 100 NE9       29.86F VSB 3/4 WCI  31
IOWA FALLS *   DRIZZLE   39  38  97 NE8       29.88F WCI  34
$$

IAZ007>011-017>019-026>030-037>042-050>054-066-260900-
   NORTHEAST IOWA

CITY           SKY/WX    TMP DP  RH WIND       PRES   REMARKS
CEDAR RAPIDS   FOG       42  42 100 NE10      29.82F VSB 1/4
CHARLES CITY * CLOUDY    37  37 100 NE13      29.89F FOG     WCI  29
CLINTON *      LGT RAIN  45  45 100 NE12      29.83F FOG
DECORAH *      LGT RAIN  37  36  93 NE6       29.89F WCI  33
DUBUQUE        LGT RAIN  40  40 100 NE12      29.86F VSB 1/4 WCI  33
MONTICELLO *   LGT RAIN  41  41 100 NE9       29.85F
OELWEIN *      CLOUDY    39  39 100 NE14      29.86F WCI  31
WATERLOO       CLOUDY    39  38  96 NE9       29.87F FOG     WCI  33
$$

IAZ064-065-067-068-078-260900-
   EAST CENTRAL IOWA

CITY           SKY/WX    TMP DP  RH WIND       PRES   REMARKS
DAVENPORT      FOG       46  45  96 E9        29.82F VSB 1/2
IOWA CITY      LGT RAIN  45  44  97 NE9       29.83F VSB 1
MUSCATINE *    CLOUDY    46  46 100 NE7       29.82S FOG
QUAD CITIES    CLOUDY    48  46  93 E6        29.81F FOG
$$

IAZ062-063-075>077-085>089-095>099-260900-
   SOUTHEAST IOWA

CITY           SKY/WX    TMP DP  RH WIND       PRES   REMARKS
BURLINGTON     CLOUDY    55  53  93 SE6       29.78S
FAIRFIELD *    FOG       46  46 100 N10       29.79S VSB 1/2
FORT MADISON * CLOUDY    55  54  94 SE5       29.79S
KEOKUK *       CLOUDY    54  54 100 SE6       29.77S
OSKALOOSA *    LGT RAIN  43  43  99 N10       29.82S VSB 3/4
OTTUMWA        LGT RAIN  45  45 100 N12       29.80F FOG
WASHINGTON *   FOG       45  45 100 NE13      29.81S VSB 1/4
$$

ABBREVIATIONS USED IN REMARKS
   TC - TEMPERATURES IN CELSIUS
  WCI - WIND CHILL INDEX
   HX - HEAT INDEX
  VSB - VISIBILITY
$$




USA.gov is the U.S. government's official web portal to all federal, state and local government web resources and services.